Location: Unspecified
(0.0000°N, 0.0000°E)
Time: 16:11:19
(UTC+00:00)

Vanguard 2 - Pass Details

Date: 22 December 2018
Orbit: 553 x 2939 km, 32.9° (Epoch: 21 March)

Event Time Altitude Azimuth Distance (km) Brightness Sun altitude
Rises 03:50:48 0° 276° (W) 5,342 - -29.0°
Reaches altitude 10° 03:54:22 10° 268° (W) 4,652 - -28.2°
Exits shadow 03:58:44 23° 253° (WSW) 4,015 10.7 -27.2°
Maximum altitude 04:06:45 36° 206° (SSW) 3,717 10.9 -25.4°
Drops below altitude 10° 04:22:23 10° 146° (SE) 5,768 12.8 -21.9°
Sets 04:27:34 0° 137° (SE) 6,718 13.5 -20.7°
